Moline, IL

12:11 PM CDT on August 25, 2016 (GMT -0500)
Quad-City International

Weather History for KMLI - December, 2014

Change the Weather History Date:

Tuesday, December 9, 2014

  Actual Average Record
Temperature  
Mean Temperature 33 °F 28 °F  
Max Temperature 37 °F 36 °F 64 °F (1918)
Min Temperature 28 °F 20 °F -17 °F (1876)
Degree Days  
Heating Degree Days 32 37  
Month to date heating degree days 323 315  
Since 1 July heating degree days 1828 1546  
Cooling Degree Days 0 0  
Month to date cooling degree days 0 0  
Year to date cooling degree days 839 1004  
Moisture  
Dew Point 25 °F    
Average Humidity 74    
Maximum Humidity 78    
Minimum Humidity 70    
Precipitation  
Precipitation 0.00 in 0.08 in 1.08 in (2003)
Month to date precipitation 0.05 0.74  
Year to date precipitation 38.62 36.52  
Snow  
Snow 0.00 in 0.30 in - ()
Month to date snowfall 0.0 2.2  
Since 1 July snowfall 4.6 3.4  
Snow Depth 0.00 in    
Sea Level Pressure  
Sea Level Pressure 30.37 in    
Wind  
Wind Speed 7 mph (NNW)    
Max Wind Speed 18 mph    
Max Gust Speed 25 mph    
Visibility 10 miles    
Events      
T = Trace of Precipitation, MM = Missing Value Source: NWS Daily Summary

Daily Weather History Graph

Daily Weather History Graph

Search for Another Location

Airport or City:

Trip Planner

Search our weather history database for the weather conditions in past years. The results will help you decide how hot, cold, wet, or windy it might be!

Date:

Astronomy

Dec. 09, 2014 Rise Set
Actual Time 7:16 AM CST 4:32 PM CST
Civil Twilight 6:45 AM CST 5:03 PM CST
Nautical Twilight 6:10 AM CST 5:38 PM CST
Astronomical Twilight 5:37 AM CST 6:11 PM CST
Moon 7:52 PM CST (12/9) 9:28 AM CST (12/9)
Length of Visible Light 10h 18m
Length of Day
9h 15m
Waning Gibbous, 90% of the Moon is Illuminated
Dec 9
Waning Gibbous
Dec 14
Last Quarter
Dec 21
New
Dec 28
First Quarter
Jan 4
Full

Hourly Weather History & Observations

Time (CST) Temp. Windchill Dew Point Humidity Pressure Visibility Wind Dir Wind Speed Gust Speed Precip Events Conditions
12:52 AM 30.0 °F 20.5 °F 24.1 °F 79% 30.22 in 10.0 mi NW 11.5 mph - N/A   Overcast
1:20 AM 30.0 °F 21.1 °F 24.1 °F 79% 30.22 in 9.0 mi NW 10.4 mph 19.6 mph N/A   Overcast
1:52 AM 30.9 °F 21.2 °F 24.1 °F 76% 30.25 in 9.0 mi NW 12.7 mph 20.7 mph N/A   Overcast
2:52 AM 30.9 °F 20.2 °F 23.0 °F 72% 30.28 in 9.0 mi NNW 15.0 mph - N/A   Overcast
3:52 AM 30.0 °F 19.1 °F 23.0 °F 75% 30.28 in 10.0 mi NNW 15.0 mph 20.7 mph N/A   Overcast
4:35 AM 30.0 °F 21.7 °F 23.0 °F 75% 30.28 in 10.0 mi NW 9.2 mph - N/A   Overcast
4:52 AM 30.0 °F 20.5 °F 23.0 °F 75% 30.32 in 10.0 mi NW 11.5 mph - N/A   Overcast
5:24 AM 28.0 °F 19.3 °F 21.9 °F 78% 30.30 in 10.0 mi WNW 9.2 mph - N/A   Overcast
5:52 AM 28.0 °F 20.8 °F 21.9 °F 78% 30.33 in 9.0 mi WNW 6.9 mph - N/A   Mostly Cloudy
6:52 AM 28.0 °F 22.8 °F 21.9 °F 78% 30.35 in 9.0 mi WNW 4.6 mph - N/A   Overcast
7:28 AM 28.0 °F 20.8 °F 23.0 °F 81% 30.35 in 8.0 mi West 6.9 mph - N/A   Overcast
7:52 AM 28.0 °F 20.8 °F 23.0 °F 81% 30.39 in 8.0 mi West 6.9 mph - N/A   Overcast
8:52 AM 28.9 °F 22.8 °F 23.0 °F 78% 30.40 in 9.0 mi NW 5.8 mph - N/A   Scattered Clouds
9:43 AM 33.1 °F 25.5 °F 26.1 °F 75% 30.39 in 10.0 mi NW 9.2 mph - N/A   Mostly Cloudy
9:52 AM 33.1 °F 26.9 °F 26.1 °F 75% 30.42 in 10.0 mi NNW 6.9 mph - N/A   Overcast
10:52 AM 33.1 °F 27.7 °F 26.1 °F 75% 30.42 in 10.0 mi North 5.8 mph - N/A   Overcast
11:52 AM 36.0 °F 31.1 °F 27.0 °F 70% 30.40 in 10.0 mi Variable 5.8 mph - N/A   Overcast
12:52 PM 37.0 °F 33.3 °F 28.0 °F 70% 30.40 in 10.0 mi North 4.6 mph - N/A   Overcast
1:52 PM 37.0 °F 32.4 °F 28.0 °F 70% 30.40 in 10.0 mi NNW 5.8 mph - N/A   Overcast
2:48 PM 35.6 °F 30.7 °F 26.6 °F 70% 30.39 in 10.0 mi North 5.8 mph - N/A   Overcast
2:52 PM 36.0 °F 32.1 °F 27.0 °F 70% 30.41 in 10.0 mi North 4.6 mph - N/A   Overcast
3:52 PM 36.0 °F 32.1 °F 27.0 °F 70% 30.42 in 10.0 mi North 4.6 mph - N/A   Overcast
4:52 PM 36.0 °F 33.3 °F 27.0 °F 70% 30.42 in 10.0 mi NNE 3.5 mph - N/A   Overcast
5:42 PM 36.0 °F 33.3 °F 27.0 °F 70% 30.40 in 10.0 mi NNE 3.5 mph - N/A   Overcast
5:52 PM 36.0 °F 32.1 °F 27.0 °F 70% 30.43 in 10.0 mi NNE 4.6 mph - N/A   Overcast
6:52 PM 35.1 °F 31.0 °F 26.1 °F 70% 30.43 in 10.0 mi NNE 4.6 mph - N/A   Overcast
7:52 PM 34.0 °F 31.0 °F 26.1 °F 73% 30.43 in 10.0 mi NNE 3.5 mph - N/A   Overcast
8:52 PM 34.0 °F 29.8 °F 26.1 °F 73% 30.43 in 10.0 mi NNE 4.6 mph - N/A   Overcast
9:52 PM 33.1 °F 27.7 °F 26.1 °F 75% 30.43 in 10.0 mi ENE 5.8 mph - N/A   Overcast
10:52 PM 33.1 °F 28.7 °F 26.1 °F 75% 30.43 in 10.0 mi ENE 4.6 mph - N/A   Overcast
11:52 PM 33.1 °F 26.9 °F 24.1 °F 70% 30.42 in 10.0 mi East 6.9 mph - N/A   Overcast